King of Scandinavia — OVOL2 — position and weather

sailwx.info

Track history (hours):
 
Tides and Currents Weather Stations Pressure Air Temp Water Temp Dewpoint Dewpoint Depression Visibility Wind Speed Wind Dir Waves Ship Positions

King of Scandinavia

Ship's website: http://www.dfds.co.uk/DSW/EN/OnBoard/na/KING.htm

Last reported at 2018-May-26 13:28 UTC. Time now 2018-May-26 13:55 UTC.
Position N 54°59' W 001°27'.

Length 166 m; beam 27.6 m; draft 6.2 m.

Type: Ship. MMSI: 220449000.

Date/timePositionNaut miles runAvg speedWind from/ knotsBaromVisibWave heightAir tempDewpointWater temp
2018-May-26 13:28N 54°59' W 001°27'0 0.0
2018-May-26 12:58N 54°59' W 001°27'0 0.0
2018-May-26 12:28N 54°59' W 001°27'0 0.0
2018-May-26 11:58N 54°59' W 001°27'0 0.0
2018-May-26 11:28N 54°59' W 001°27'0 0.0
2018-May-26 10:55N 54°59' W 001°27'0 0.0
2018-May-26 10:19N 54°59' W 001°27'0 0.0
2018-May-26 09:52N 54°59' W 001°27'0 0.0
2018-May-26 09:22N 54°59' W 001°27'0 0.0
2018-May-26 08:46N 54°59' W 001°27'0 0.0
2018-May-26 08:22N 54°59' W 001°27'0 0.1
2018-May-26 08:00N 54°59' W 001°27'4 7.1
2018-May-26 07:31N 55°01' W 001°21'816.9
2018-May-26 07:00N 54°56' W 001°09'918.0
2018-May-26 06:29N 54°51' W 000°56'2218.0
2018-May-26 05:15N 54°38' W 000°24'417.8
2018-May-26 05:00N 54°35' W 000°18'917.7
2018-May-26 04:30N 54°31' W 000°05'917.6
2018-May-26 04:00N 54°26' E 000°07'917.3
2018-May-26 03:30N 54°21' E 000°20'816.9
2018-May-26 03:00N 54°16' E 000°32'816.8
2018-May-26 02:30N 54°11' E 000°44'15615.9
2018-May-25 16:41N 52°38' E 004°13'314.9
2018-May-25 16:30N 52°36' E 004°17'714.8
2018-May-25 16:00N 52°31' E 004°26'612.7
2018-May-25 15:30N 52°28' E 004°35'0 0.6
2018-May-25 15:01N 52°28' E 004°35'0 0.0
2018-May-25 14:31N 52°28' E 004°35'0 0.0
2018-May-25 14:00N 52°28' E 004°35'0 0.0
2018-May-25 13:31N 52°28' E 004°35'0 0.0
2018-May-25 13:00N 52°28' E 004°35'0 0.0
2018-May-25 12:31N 52°28' E 004°35'0 0.0
2018-May-25 12:00N 52°28' E 004°35'0 0.0
2018-May-25 11:30N 52°28' E 004°35'0 0.0
2018-May-25 11:00N 52°28' E 004°35'0 0.0
2018-May-25 10:30N 52°28' E 004°35'0 0.0
2018-May-25 10:00N 52°28' E 004°35'0 0.0
2018-May-25 09:31N 52°28' E 004°35'0 0.0
2018-May-25 09:01N 52°28' E 004°35'0 0.0
2018-May-25 08:30N 52°28' E 004°35'0 0.0
2018-May-25 08:00N 52°28' E 004°35'0 0.3
2018-May-25 07:30N 52°28' E 004°35'4 8.9
2018-May-25 07:01N 52°29' E 004°28'916.9
2018-May-25 06:30N 52°35' E 004°18'1517.5
2018-May-25 05:37N 52°45' E 003°58'418.2
2018-May-25 05:23N 52°48' E 003°53'14617.4
2018-May-24 21:01N 54°14' E 000°36'017.1
2018-May-24 21:00N 54°15' E 000°36'816.9
2018-May-24 20:30N 54°19' E 000°24'817.0
2018-May-24 20:00N 54°24' E 000°12'917.1
2018-May-24 19:30N 54°28' W 000°01'917.0
2018-May-24 19:00N 54°33' W 000°13'917.2
2018-May-24 18:30N 54°38' W 000°26'2117.3
2018-May-24 17:16N 54°50' W 000°56'417.6
2018-May-24 17:00N 54°53' W 001°02'917.6
2018-May-24 16:30N 54°58' W 001°15'714.1
2018-May-24 16:00N 55°00' W 001°26'1 1.9
2018-May-24 15:30N 54°59' W 001°27'0 0.0
2018-May-24 14:57N 54°59' W 001°27'0 0.0
2018-May-24 14:30N 54°59' W 001°27'0 0.0
2018-May-24 14:00N 54°59' W 001°27'0 0.0
2018-May-24 08:54N 54°59' W 001°27'0 0.0
2018-May-24 08:24N 54°59' W 001°27'0 0.2
2018-May-24 08:00N 54°59' W 001°27'510.2
2018-May-24 07:31N 54°60' W 001°18'918.0
2018-May-24 07:01N 54°54' W 001°05'1518.5
2018-May-24 06:13N 54°46' W 000°45'1518.6
2018-May-24 05:25N 54°38' W 000°23'818.4
2018-May-24 05:00N 54°33' W 000°12'918.0
2018-May-24 04:31N 54°29' E 000°00'917.8
2018-May-24 04:01N 54°24' E 000°13'917.5
2018-May-24 03:28N 54°18' E 000°26'1117.3
2018-May-24 02:49N 54°12' E 000°43'516.7
2018-May-24 02:31N 54°09' E 000°50'815.7
2018-May-24 02:00N 54°05' E 001°01'815.1
2018-May-24 01:31N 54°00' E 001°12'815.0
2018-May-24 01:00N 53°56' E 001°22'815.1
2018-May-24 00:30N 53°52' E 001°32'815.1
2018-May-24 00:01N 53°47' E 001°43'2115.7
2018-May-23 22:41N 53°38' E 002°14'816.2
2018-May-23 22:12N 53°33' E 002°25'416.3
2018-May-23 21:59N 53°31' E 002°29'816.7
2018-May-23 21:31N 53°26' E 002°39'816.8
2018-May-23 21:01N 53°20' E 002°50'816.7
2018-May-23 20:31N 53°16' E 003°02'816.4
2018-May-23 19:59N 53°10' E 003°11'816.4
2018-May-23 19:30N 53°05' E 003°22'816.2
2018-May-23 19:00N 52°59' E 003°32'816.0
2018-May-23 18:30N 52°54' E 003°42'815.8
2018-May-23 18:00N 52°49' E 003°52'1215.6
2018-May-23 17:15N 52°41' E 004°07'615.5
2018-May-23 16:52N 52°37' E 004°14'515.2
2018-May-23 16:30N 52°34' E 004°21'815.1
2018-May-23 16:00N 52°29' E 004°30'3 6.3
2018-May-23 15:30N 52°28' E 004°35'0 0.0
2018-May-23 15:00N 52°28' E 004°35'0 0.0
2018-May-23 14:29N 52°28' E 004°35'0 0.0
2018-May-23 13:59N 52°28' E 004°35'0 0.0
2018-May-23 13:29N 52°28' E 004°35'0 0.0
2018-May-23 12:59N 52°28' E 004°35'0 0.0
2018-May-23 12:29N 52°28' E 004°35'0 0.0
2018-May-23 11:59N 52°28' E 004°35'0 0.0
2018-May-23 11:29N 52°28' E 004°35'0 0.0
2018-May-23 10:59N 52°28' E 004°35'0 0.0
2018-May-23 10:29N 52°28' E 004°35'0 0.0
2018-May-23 09:59N 52°28' E 004°35'0 0.0
2018-May-23 09:29N 52°28' E 004°35'0 0.0
2018-May-23 08:59N 52°28' E 004°35'0 0.0
2018-May-23 08:29N 52°28' E 004°35'0 0.0
2018-May-23 07:59N 52°28' E 004°35'0 0.4
2018-May-23 07:31N 52°28' E 004°35'4 8.7
2018-May-23 07:01N 52°29' E 004°28'714.6
2018-May-23 06:31N 52°34' E 004°19'714.8
2018-May-23 06:00N 52°39' E 004°11'714.8
2018-May-23 05:31N 52°44' E 004°01'814.9
2018-May-23 05:00N 52°49' E 003°52'815.6
2018-May-23 04:30N 52°54' E 003°42'20017.9
2018-May-22 17:22N 54°49' W 000°54'617.9
2018-May-22 17:00N 54°53' W 001°04'917.9
2018-May-22 16:30N 54°58' W 001°17'612.3
2018-May-22 16:00N 55°00' W 001°26'1 1.7
2018-May-22 15:30N 54°59' W 001°27'0 0.0
2018-May-22 14:59N 54°59' W 001°27'0 0.0
2018-May-22 14:29N 54°59' W 001°27'0 0.0
2018-May-22 13:59N 54°59' W 001°27'0 0.0
2018-May-22 13:20N 54°59' W 001°27'0 0.0
2018-May-22 12:50N 54°59' W 001°27'0 0.0
2018-May-22 12:23N 54°59' W 001°27'0 0.0
2018-May-22 11:53N 54°59' W 001°27'0 0.0
2018-May-22 11:08N 54°59' W 001°27'0 0.0
2018-May-22 10:53N 54°59' W 001°27'0 0.0
2018-May-22 10:23N 54°59' W 001°27'0 0.0
2018-May-22 09:53N 54°59' W 001°27'0 0.0
2018-May-22 09:26N 54°59' W 001°27'0 0.0
2018-May-22 08:56N 54°59' W 001°27'0 0.0
2018-May-22 08:26N 54°59' W 001°27'0 1.0
2018-May-22 08:00N 54°60' W 001°27'612.6
2018-May-22 07:30N 54°59' W 001°16'918.8
2018-May-22 07:00N 54°53' W 001°03'16215.9
2018-May-21 20:49N 53°23' E 002°46'616.5
2018-May-21 20:29N 53°19' E 002°53'816.6
2018-May-21 20:00N 53°14' E 003°02'816.7
2018-May-21 19:30N 53°08' E 003°13'816.6
2018-May-21 19:00N 53°03' E 003°24'816.5
2018-May-21 18:30N 52°58' E 003°35'816.3
2018-May-21 18:00N 52°52' E 003°45'816.0
2018-May-21 17:30N 52°47' E 003°55'815.9
2018-May-21 16:58N 52°42' E 004°05'915.8
2018-May-21 16:25N 52°36' E 004°16'715.7
2018-May-21 16:00N 52°32' E 004°25'714.5
2018-May-21 15:30N 52°28' E 004°35'0 0.7
2018-May-21 15:01N 52°28' E 004°35'0 0.0
2018-May-21 14:28N 52°28' E 004°35'0 0.0
2018-May-21 13:55N 52°28' E 004°35'0 0.0
2018-May-21 13:28N 52°28' E 004°35'0 0.0
2018-May-21 12:58N 52°28' E 004°35'0 0.0
2018-May-21 12:25N 52°28' E 004°35'0 0.0
2018-May-21 11:58N 52°28' E 004°35'0 0.0
2018-May-21 11:28N 52°28' E 004°35'0 0.0
2018-May-21 10:58N 52°28' E 004°35'0 0.0
2018-May-21 10:28N 52°28' E 004°35'0 0.0
2018-May-21 09:58N 52°28' E 004°35'0 0.0
2018-May-21 09:28N 52°28' E 004°35'0 0.0
2018-May-21 08:58N 52°28' E 004°35'0 0.0
2018-May-21 08:25N 52°28' E 004°35'0 0.0
2018-May-21 07:58N 52°28' E 004°35'0 0.2
2018-May-21 07:31N 52°28' E 004°35'4 7.0
2018-May-21 07:01N 52°29' E 004°29'714.0
2018-May-21 06:30N 52°34' E 004°21'714.3
2018-May-21 06:00N 52°39' E 004°13'714.7
2018-May-21 05:31N 52°43' E 004°03'815.2
2018-May-21 05:01N 52°48' E 003°54'715.0
2018-May-21 04:31N 52°53' E 003°45'815.0
2018-May-21 03:59N 52°58' E 003°35'1916.8
2018-May-21 02:53N 53°09' E 003°10'2917.9
2018-May-21 01:16N 53°26' E 002°31'518.4
2018-May-21 01:01N 53°29' E 002°24'918.4
2018-May-21 00:30N 53°34' E 002°11'918.6
2018-May-21 00:01N 53°39' E 001°58'1118.9
2018-May-20 23:25N 53°47' E 001°44'2218.8
2018-May-20 22:14N 53°59' E 001°13'418.6
2018-May-20 22:00N 54°02' E 001°08'918.6
2018-May-20 21:30N 54°07' E 000°55'7418.4
2018-May-20 17:30N 54°48' W 000°51'917.5
2018-May-20 17:00N 54°53' W 001°03'917.5
2018-May-20 16:30N 54°58' W 001°16'612.8
2018-May-20 16:00N 55°00' W 001°26'1 2.2
2018-May-20 15:30N 54°59' W 001°27'0 0.0
2018-May-20 15:00N 54°59' W 001°27'0 0.0
2018-May-20 14:29N 54°59' W 001°27'0 0.0
2018-May-20 13:50N 54°59' W 001°27'0 0.0
2018-May-20 13:29N 54°59' W 001°27'0 0.0
2018-May-20 12:50N 54°59' W 001°27'0 0.0
2018-May-20 12:20N 54°59' W 001°27'0 0.0
2018-May-20 11:50N 54°59' W 001°27'0 0.0
2018-May-20 11:17N 54°59' W 001°27'0 0.0
2018-May-20 10:53N 54°59' W 001°27'0 0.0
2018-May-20 10:23N 54°59' W 001°27'0 0.0
2018-May-20 09:53N 54°59' W 001°27'0 0.0
2018-May-20 09:23N 54°59' W 001°27'0 0.0
2018-May-20 08:53N 54°59' W 001°27'0 0.0
2018-May-20 08:27N 54°59' W 001°27'1 2.6
2018-May-20 08:00N 55°00' W 001°26'612.6
2018-May-20 07:30N 54°58' W 001°16'815.4
2018-May-20 07:00N 54°54' W 001°04'815.4
2018-May-20 06:30N 54°50' W 000°53'23016.2
2018-May-19 16:18N 52°34' E 004°20'515.4
2018-May-19 16:00N 52°31' E 004°26'612.9
2018-May-19 15:30N 52°28' E 004°35'0 0.5
2018-May-19 15:00N 52°28' E 004°35'0 0.0
2018-May-19 14:30N 52°28' E 004°35'0 0.0
2018-May-19 14:00N 52°28' E 004°35'0 0.0
2018-May-19 13:30N 52°28' E 004°35'0 0.0
2018-May-19 13:00N 52°28' E 004°35'0 0.0
2018-May-19 12:27N 52°28' E 004°35'0 0.0
2018-May-19 12:00N 52°28' E 004°35'0 0.0
2018-May-19 11:30N 52°28' E 004°35'0 0.0
2018-May-19 11:00N 52°28' E 004°35'0 0.0
2018-May-19 10:30N 52°28' E 004°35'0 0.0
2018-May-19 09:57N 52°28' E 004°35'0 0.0
2018-May-19 09:30N 52°28' E 004°35'0 0.0
2018-May-19 09:00N 52°28' E 004°35'0 0.0
2018-May-19 08:30N 52°28' E 004°35'0 0.0
2018-May-19 07:57N 52°28' E 004°35'0 0.4
2018-May-19 07:30N 52°28' E 004°35'510.3
2018-May-19 07:00N 52°30' E 004°27'816.7
2018-May-19 06:30N 52°36' E 004°17'917.0
2018-May-19 06:00N 52°41' E 004°06'5516.7
2018-May-19 02:43N 53°16' E 002°55'1616.8
2018-May-19 01:45N 53°25' E 002°34'13817.8
2018-May-18 18:00N 54°44' W 000°40'816.6
2018-May-18 17:30N 54°49' W 000°52'816.2
2018-May-18 17:00N 54°53' W 001°04'816.2
2018-May-18 16:30N 54°57' W 001°16'713.2
2018-May-18 16:00N 55°00' W 001°26'1 2.6
2018-May-18 15:30N 54°59' W 001°27'0 0.0
2018-May-18 15:00N 54°59' W 001°27'0 0.0
2018-May-18 14:22N 54°59' W 001°27'0 0.0
2018-May-18 13:37N 54°59' W 001°27'0 0.0
2018-May-18 13:22N 54°59' W 001°27'0 0.0
2018-May-18 12:49N 54°59' W 001°27'0 0.0
2018-May-18 12:22N 54°59' W 001°27'0 0.0
2018-May-18 11:55N 54°59' W 001°27'0 0.0
2018-May-18 11:25N 54°59' W 001°27'0 0.0
2018-May-18 10:55N 54°59' W 001°27'0 0.0
2018-May-18 10:25N 54°59' W 001°27'0 0.0
2018-May-18 09:55N 54°59' W 001°27'0 0.0
2018-May-18 09:25N 54°59' W 001°27'0 0.0
2018-May-18 08:58N 54°59' W 001°27'0 0.0
2018-May-18 08:28N 54°59' W 001°27'1 2.3
2018-May-18 08:00N 55°00' W 001°26'714.4
2018-May-18 07:31N 54°58' W 001°14'20017.1
2018-May-17 19:48N 53°03' E 003°24'715.2
2018-May-17 19:18N 52°59' E 003°34'3414.5
2018-May-17 16:57N 52°36' E 004°16'614.4
2018-May-17 16:30N 52°32' E 004°24'713.3
2018-May-17 16:00N 52°28' E 004°33'1 2.3
2018-May-17 15:30N 52°28' E 004°35'0 0.0
2018-May-17 15:00N 52°28' E 004°35'0 0.0
2018-May-17 14:29N 52°28' E 004°35'0 0.0
2018-May-17 13:59N 52°28' E 004°35'0 0.0
2018-May-17 13:29N 52°28' E 004°35'0 0.0
2018-May-17 12:59N 52°28' E 004°35'0 0.0
2018-May-17 12:26N 52°28' E 004°35'0 0.0
2018-May-17 11:59N 52°28' E 004°35'0 0.0
2018-May-17 11:26N 52°28' E 004°35'0 0.0
2018-May-17 10:59N 52°28' E 004°35'0 0.0
2018-May-17 10:26N 52°28' E 004°35'0 0.0
2018-May-17 09:53N 52°28' E 004°35'0 0.5
2018-May-17 09:30N 52°28' E 004°35'3 6.2
2018-May-17 09:00N 52°28' E 004°30'5 9.9
2018-May-17 08:31N 52°32' E 004°24'1019.3
2018-May-17 08:01N 52°38' E 004°12'1019.2
2018-May-17 07:28N 52°45' E 003°59'2018.9
2018-May-17 06:26N 52°58' E 003°35'1218.6
2018-May-17 05:46N 53°05' E 003°19'618.3
2018-May-17 05:28N 53°09' E 003°11'8117.3
2018-May-17 00:48N 53°56' E 001°22'3317.3
2018-May-16 22:53N 54°15' E 000°35'617.0
2018-May-16 22:31N 54°20' E 000°28'917.3
2018-May-16 22:00N 54°25' E 000°16'917.5
2018-May-16 21:30N 54°30' E 000°04'917.6
2018-May-16 21:01N 54°34' W 000°10'917.8
2018-May-16 20:31N 54°38' W 000°24'2218.6
2018-May-16 19:20N 54°50' W 000°55'618.8
2018-May-16 19:00N 54°53' W 001°04'918.6
2018-May-16 18:31N 54°59' W 001°18'510.5
2018-May-16 18:00N 55°00' W 001°26'1 2.1
2018-May-16 17:29N 54°59' W 001°27'0 0.0
2018-May-16 17:00N 54°59' W 001°27'0 0.0
2018-May-16 16:30N 54°59' W 001°27'0 0.0
2018-May-16 16:00N 54°59' W 001°27'0 0.0
2018-May-16 15:30N 54°59' W 001°27'0 0.0
2018-May-16 14:51N 54°59' W 001°27'0 0.0
2018-May-16 14:21N 54°59' W 001°27'0 0.0
2018-May-16 13:54N 54°59' W 001°27'0 0.1
2018-May-16 13:30N 54°59' W 001°27'  
Track history (hours):
 
Tides and Currents Weather Stations Pressure Air Temp Water Temp Dewpoint Dewpoint Depression Visibility Wind Speed Wind Dir Waves Ship Positions

King of Scandinavia

Ship's website: http://www.dfds.co.uk/DSW/EN/OnBoard/na/KING.htm

Last reported at 2018-May-26 13:28 UTC. Time now 2018-May-26 13:55 UTC.
Position N 54°59' W 001°27'.

Length 166 m; beam 27.6 m; draft 6.2 m.

Type: Ship. MMSI: 220449000.

Date/timePositionNaut miles runAvg speedWind from/ knotsBaromVisibWave heightAir tempDewpointWater temp
2018-May-26 13:28N 54°59' W 001°27'0 0.0
2018-May-26 12:58N 54°59' W 001°27'0 0.0
2018-May-26 12:28N 54°59' W 001°27'0 0.0
2018-May-26 11:58N 54°59' W 001°27'0 0.0
2018-May-26 11:28N 54°59' W 001°27'0 0.0
2018-May-26 10:55N 54°59' W 001°27'0 0.0
2018-May-26 10:19N 54°59' W 001°27'0 0.0
2018-May-26 09:52N 54°59' W 001°27'0 0.0
2018-May-26 09:22N 54°59' W 001°27'0 0.0
2018-May-26 08:46N 54°59' W 001°27'0 0.0
2018-May-26 08:22N 54°59' W 001°27'0 0.1
2018-May-26 08:00N 54°59' W 001°27'4 7.1
2018-May-26 07:31N 55°01' W 001°21'816.9
2018-May-26 07:00N 54°56' W 001°09'918.0
2018-May-26 06:29N 54°51' W 000°56'2218.0
2018-May-26 05:15N 54°38' W 000°24'417.8
2018-May-26 05:00N 54°35' W 000°18'917.7
2018-May-26 04:30N 54°31' W 000°05'917.6
2018-May-26 04:00N 54°26' E 000°07'917.3
2018-May-26 03:30N 54°21' E 000°20'816.9
2018-May-26 03:00N 54°16' E 000°32'816.8
2018-May-26 02:30N 54°11' E 000°44'15615.9
2018-May-25 16:41N 52°38' E 004°13'314.9
2018-May-25 16:30N 52°36' E 004°17'714.8
2018-May-25 16:00N 52°31' E 004°26'612.7
2018-May-25 15:30N 52°28' E 004°35'0 0.6
2018-May-25 15:01N 52°28' E 004°35'0 0.0
2018-May-25 14:31N 52°28' E 004°35'0 0.0
2018-May-25 14:00N 52°28' E 004°35'0 0.0
2018-May-25 13:31N 52°28' E 004°35'0 0.0
2018-May-25 13:00N 52°28' E 004°35'0 0.0
2018-May-25 12:31N 52°28' E 004°35'0 0.0
2018-May-25 12:00N 52°28' E 004°35'0 0.0
2018-May-25 11:30N 52°28' E 004°35'0 0.0
2018-May-25 11:00N 52°28' E 004°35'0 0.0
2018-May-25 10:30N 52°28' E 004°35'0 0.0
2018-May-25 10:00N 52°28' E 004°35'0 0.0
2018-May-25 09:31N 52°28' E 004°35'0 0.0
2018-May-25 09:01N 52°28' E 004°35'0 0.0
2018-May-25 08:30N 52°28' E 004°35'0 0.0
2018-May-25 08:00N 52°28' E 004°35'0 0.3
2018-May-25 07:30N 52°28' E 004°35'4 8.9
2018-May-25 07:01N 52°29' E 004°28'916.9
2018-May-25 06:30N 52°35' E 004°18'1517.5
2018-May-25 05:37N 52°45' E 003°58'418.2
2018-May-25 05:23N 52°48' E 003°53'14617.4
2018-May-24 21:01N 54°14' E 000°36'017.1
2018-May-24 21:00N 54°15' E 000°36'816.9
2018-May-24 20:30N 54°19' E 000°24'817.0
2018-May-24 20:00N 54°24' E 000°12'917.1
2018-May-24 19:30N 54°28' W 000°01'917.0
2018-May-24 19:00N 54°33' W 000°13'917.2
2018-May-24 18:30N 54°38' W 000°26'2117.3
2018-May-24 17:16N 54°50' W 000°56'417.6
2018-May-24 17:00N 54°53' W 001°02'917.6
2018-May-24 16:30N 54°58' W 001°15'714.1
2018-May-24 16:00N 55°00' W 001°26'1 1.9
2018-May-24 15:30N 54°59' W 001°27'0 0.0
2018-May-24 14:57N 54°59' W 001°27'0 0.0
2018-May-24 14:30N 54°59' W 001°27'0 0.0
2018-May-24 14:00N 54°59' W 001°27'0 0.0
2018-May-24 08:54N 54°59' W 001°27'0 0.0
2018-May-24 08:24N 54°59' W 001°27'0 0.2
2018-May-24 08:00N 54°59' W 001°27'510.2
2018-May-24 07:31N 54°60' W 001°18'918.0
2018-May-24 07:01N 54°54' W 001°05'1518.5
2018-May-24 06:13N 54°46' W 000°45'1518.6
2018-May-24 05:25N 54°38' W 000°23'818.4
2018-May-24 05:00N 54°33' W 000°12'918.0
2018-May-24 04:31N 54°29' E 000°00'917.8
2018-May-24 04:01N 54°24' E 000°13'917.5
2018-May-24 03:28N 54°18' E 000°26'1117.3
2018-May-24 02:49N 54°12' E 000°43'516.7
2018-May-24 02:31N 54°09' E 000°50'815.7
2018-May-24 02:00N 54°05' E 001°01'815.1
2018-May-24 01:31N 54°00' E 001°12'815.0
2018-May-24 01:00N 53°56' E 001°22'815.1
2018-May-24 00:30N 53°52' E 001°32'815.1
2018-May-24 00:01N 53°47' E 001°43'2115.7
2018-May-23 22:41N 53°38' E 002°14'816.2
2018-May-23 22:12N 53°33' E 002°25'416.3
2018-May-23 21:59N 53°31' E 002°29'816.7
2018-May-23 21:31N 53°26' E 002°39'816.8
2018-May-23 21:01N 53°20' E 002°50'816.7
2018-May-23 20:31N 53°16' E 003°02'816.4
2018-May-23 19:59N 53°10' E 003°11'816.4
2018-May-23 19:30N 53°05' E 003°22'816.2
2018-May-23 19:00N 52°59' E 003°32'816.0
2018-May-23 18:30N 52°54' E 003°42'815.8
2018-May-23 18:00N 52°49' E 003°52'1215.6
2018-May-23 17:15N 52°41' E 004°07'615.5
2018-May-23 16:52N 52°37' E 004°14'515.2
2018-May-23 16:30N 52°34' E 004°21'815.1
2018-May-23 16:00N 52°29' E 004°30'3 6.3
2018-May-23 15:30N 52°28' E 004°35'0 0.0
2018-May-23 15:00N 52°28' E 004°35'0 0.0
2018-May-23 14:29N 52°28' E 004°35'0 0.0
2018-May-23 13:59N 52°28' E 004°35'0 0.0
2018-May-23 13:29N 52°28' E 004°35'0 0.0
2018-May-23 12:59N 52°28' E 004°35'0 0.0
2018-May-23 12:29N 52°28' E 004°35'0 0.0
2018-May-23 11:59N 52°28' E 004°35'0 0.0
2018-May-23 11:29N 52°28' E 004°35'0 0.0
2018-May-23 10:59N 52°28' E 004°35'0 0.0
2018-May-23 10:29N 52°28' E 004°35'0 0.0
2018-May-23 09:59N 52°28' E 004°35'0 0.0
2018-May-23 09:29N 52°28' E 004°35'0 0.0
2018-May-23 08:59N 52°28' E 004°35'0 0.0
2018-May-23 08:29N 52°28' E 004°35'0 0.0
2018-May-23 07:59N 52°28' E 004°35'0 0.4
2018-May-23 07:31N 52°28' E 004°35'4 8.7
2018-May-23 07:01N 52°29' E 004°28'714.6
2018-May-23 06:31N 52°34' E 004°19'714.8
2018-May-23 06:00N 52°39' E 004°11'714.8
2018-May-23 05:31N 52°44' E 004°01'814.9
2018-May-23 05:00N 52°49' E 003°52'815.6
2018-May-23 04:30N 52°54' E 003°42'20017.9
2018-May-22 17:22N 54°49' W 000°54'617.9
2018-May-22 17:00N 54°53' W 001°04'917.9
2018-May-22 16:30N 54°58' W 001°17'612.3
2018-May-22 16:00N 55°00' W 001°26'1 1.7
2018-May-22 15:30N 54°59' W 001°27'0 0.0
2018-May-22 14:59N 54°59' W 001°27'0 0.0
2018-May-22 14:29N 54°59' W 001°27'0 0.0
2018-May-22 13:59N 54°59' W 001°27'0 0.0
2018-May-22 13:20N 54°59' W 001°27'0 0.0
2018-May-22 12:50N 54°59' W 001°27'0 0.0
2018-May-22 12:23N 54°59' W 001°27'0 0.0
2018-May-22 11:53N 54°59' W 001°27'0 0.0
2018-May-22 11:08N 54°59' W 001°27'0 0.0
2018-May-22 10:53N 54°59' W 001°27'0 0.0
2018-May-22 10:23N 54°59' W 001°27'0 0.0
2018-May-22 09:53N 54°59' W 001°27'0 0.0
2018-May-22 09:26N 54°59' W 001°27'0 0.0
2018-May-22 08:56N 54°59' W 001°27'0 0.0
2018-May-22 08:26N 54°59' W 001°27'0 1.0
2018-May-22 08:00N 54°60' W 001°27'612.6
2018-May-22 07:30N 54°59' W 001°16'918.8
2018-May-22 07:00N 54°53' W 001°03'16215.9
2018-May-21 20:49N 53°23' E 002°46'616.5
2018-May-21 20:29N 53°19' E 002°53'816.6
2018-May-21 20:00N 53°14' E 003°02'816.7
2018-May-21 19:30N 53°08' E 003°13'816.6
2018-May-21 19:00N 53°03' E 003°24'816.5
2018-May-21 18:30N 52°58' E 003°35'816.3
2018-May-21 18:00N 52°52' E 003°45'816.0
2018-May-21 17:30N 52°47' E 003°55'815.9
2018-May-21 16:58N 52°42' E 004°05'915.8
2018-May-21 16:25N 52°36' E 004°16'715.7
2018-May-21 16:00N 52°32' E 004°25'714.5
2018-May-21 15:30N 52°28' E 004°35'0 0.7
2018-May-21 15:01N 52°28' E 004°35'0 0.0
2018-May-21 14:28N 52°28' E 004°35'0 0.0
2018-May-21 13:55N 52°28' E 004°35'0 0.0
2018-May-21 13:28N 52°28' E 004°35'0 0.0
2018-May-21 12:58N 52°28' E 004°35'0 0.0
2018-May-21 12:25N 52°28' E 004°35'0 0.0
2018-May-21 11:58N 52°28' E 004°35'0 0.0
2018-May-21 11:28N 52°28' E 004°35'0 0.0
2018-May-21 10:58N 52°28' E 004°35'0 0.0
2018-May-21 10:28N 52°28' E 004°35'0 0.0
2018-May-21 09:58N 52°28' E 004°35'0 0.0
2018-May-21 09:28N 52°28' E 004°35'0 0.0
2018-May-21 08:58N 52°28' E 004°35'0 0.0
2018-May-21 08:25N 52°28' E 004°35'0 0.0
2018-May-21 07:58N 52°28' E 004°35'0 0.2
2018-May-21 07:31N 52°28' E 004°35'4 7.0
2018-May-21 07:01N 52°29' E 004°29'714.0
2018-May-21 06:30N 52°34' E 004°21'714.3
2018-May-21 06:00N 52°39' E 004°13'714.7
2018-May-21 05:31N 52°43' E 004°03'815.2
2018-May-21 05:01N 52°48' E 003°54'715.0
2018-May-21 04:31N 52°53' E 003°45'815.0
2018-May-21 03:59N 52°58' E 003°35'1916.8
2018-May-21 02:53N 53°09' E 003°10'2917.9
2018-May-21 01:16N 53°26' E 002°31'518.4
2018-May-21 01:01N 53°29' E 002°24'918.4
2018-May-21 00:30N 53°34' E 002°11'918.6
2018-May-21 00:01N 53°39' E 001°58'1118.9
2018-May-20 23:25N 53°47' E 001°44'2218.8
2018-May-20 22:14N 53°59' E 001°13'418.6
2018-May-20 22:00N 54°02' E 001°08'918.6
2018-May-20 21:30N 54°07' E 000°55'7418.4
2018-May-20 17:30N 54°48' W 000°51'917.5
2018-May-20 17:00N 54°53' W 001°03'917.5
2018-May-20 16:30N 54°58' W 001°16'612.8
2018-May-20 16:00N 55°00' W 001°26'1 2.2
2018-May-20 15:30N 54°59' W 001°27'0 0.0
2018-May-20 15:00N 54°59' W 001°27'0 0.0
2018-May-20 14:29N 54°59' W 001°27'0 0.0
2018-May-20 13:50N 54°59' W 001°27'0 0.0
2018-May-20 13:29N 54°59' W 001°27'0 0.0
2018-May-20 12:50N 54°59' W 001°27'0 0.0
2018-May-20 12:20N 54°59' W 001°27'0 0.0
2018-May-20 11:50N 54°59' W 001°27'0 0.0
2018-May-20 11:17N 54°59' W 001°27'0 0.0
2018-May-20 10:53N 54°59' W 001°27'0 0.0
2018-May-20 10:23N 54°59' W 001°27'0 0.0
2018-May-20 09:53N 54°59' W 001°27'0 0.0
2018-May-20 09:23N 54°59' W 001°27'0 0.0
2018-May-20 08:53N 54°59' W 001°27'0 0.0
2018-May-20 08:27N 54°59' W 001°27'1 2.6
2018-May-20 08:00N 55°00' W 001°26'612.6
2018-May-20 07:30N 54°58' W 001°16'815.4
2018-May-20 07:00N 54°54' W 001°04'815.4
2018-May-20 06:30N 54°50' W 000°53'23016.2
2018-May-19 16:18N 52°34' E 004°20'515.4
2018-May-19 16:00N 52°31' E 004°26'612.9
2018-May-19 15:30N 52°28' E 004°35'0 0.5
2018-May-19 15:00N 52°28' E 004°35'0 0.0
2018-May-19 14:30N 52°28' E 004°35'0 0.0
2018-May-19 14:00N 52°28' E 004°35'0 0.0
2018-May-19 13:30N 52°28' E 004°35'0 0.0
2018-May-19 13:00N 52°28' E 004°35'0 0.0
2018-May-19 12:27N 52°28' E 004°35'0 0.0
2018-May-19 12:00N 52°28' E 004°35'0 0.0
2018-May-19 11:30N 52°28' E 004°35'0 0.0
2018-May-19 11:00N 52°28' E 004°35'0 0.0
2018-May-19 10:30N 52°28' E 004°35'0 0.0
2018-May-19 09:57N 52°28' E 004°35'0 0.0
2018-May-19 09:30N 52°28' E 004°35'0 0.0
2018-May-19 09:00N 52°28' E 004°35'0 0.0
2018-May-19 08:30N 52°28' E 004°35'0 0.0
2018-May-19 07:57N 52°28' E 004°35'0 0.4
2018-May-19 07:30N 52°28' E 004°35'510.3
2018-May-19 07:00N 52°30' E 004°27'816.7
2018-May-19 06:30N 52°36' E 004°17'917.0
2018-May-19 06:00N 52°41' E 004°06'5516.7
2018-May-19 02:43N 53°16' E 002°55'1616.8
2018-May-19 01:45N 53°25' E 002°34'13817.8
2018-May-18 18:00N 54°44' W 000°40'816.6
2018-May-18 17:30N 54°49' W 000°52'816.2
2018-May-18 17:00N 54°53' W 001°04'816.2
2018-May-18 16:30N 54°57' W 001°16'713.2
2018-May-18 16:00N 55°00' W 001°26'1 2.6
2018-May-18 15:30N 54°59' W 001°27'0 0.0
2018-May-18 15:00N 54°59' W 001°27'0 0.0
2018-May-18 14:22N 54°59' W 001°27'0 0.0
2018-May-18 13:37N 54°59' W 001°27'0 0.0
2018-May-18 13:22N 54°59' W 001°27'0 0.0
2018-May-18 12:49N 54°59' W 001°27'0 0.0
2018-May-18 12:22N 54°59' W 001°27'0 0.0
2018-May-18 11:55N 54°59' W 001°27'0 0.0
2018-May-18 11:25N 54°59' W 001°27'0 0.0
2018-May-18 10:55N 54°59' W 001°27'0 0.0
2018-May-18 10:25N 54°59' W 001°27'0 0.0
2018-May-18 09:55N 54°59' W 001°27'0 0.0
2018-May-18 09:25N 54°59' W 001°27'0 0.0
2018-May-18 08:58N 54°59' W 001°27'0 0.0
2018-May-18 08:28N 54°59' W 001°27'1 2.3
2018-May-18 08:00N 55°00' W 001°26'714.4
2018-May-18 07:31N 54°58' W 001°14'20017.1
2018-May-17 19:48N 53°03' E 003°24'715.2
2018-May-17 19:18N 52°59' E 003°34'3414.5
2018-May-17 16:57N 52°36' E 004°16'614.4
2018-May-17 16:30N 52°32' E 004°24'713.3
2018-May-17 16:00N 52°28' E 004°33'1 2.3
2018-May-17 15:30N 52°28' E 004°35'0 0.0
2018-May-17 15:00N 52°28' E 004°35'0 0.0
2018-May-17 14:29N 52°28' E 004°35'0 0.0
2018-May-17 13:59N 52°28' E 004°35'0 0.0
2018-May-17 13:29N 52°28' E 004°35'0 0.0
2018-May-17 12:59N 52°28' E 004°35'0 0.0
2018-May-17 12:26N 52°28' E 004°35'0 0.0
2018-May-17 11:59N 52°28' E 004°35'0 0.0
2018-May-17 11:26N 52°28' E 004°35'0 0.0
2018-May-17 10:59N 52°28' E 004°35'0 0.0
2018-May-17 10:26N 52°28' E 004°35'0 0.0
2018-May-17 09:53N 52°28' E 004°35'0 0.5
2018-May-17 09:30N 52°28' E 004°35'3 6.2
2018-May-17 09:00N 52°28' E 004°30'5 9.9
2018-May-17 08:31N 52°32' E 004°24'1019.3
2018-May-17 08:01N 52°38' E 004°12'1019.2
2018-May-17 07:28N 52°45' E 003°59'2018.9
2018-May-17 06:26N 52°58' E 003°35'1218.6
2018-May-17 05:46N 53°05' E 003°19'618.3
2018-May-17 05:28N 53°09' E 003°11'8117.3
2018-May-17 00:48N 53°56' E 001°22'3317.3
2018-May-16 22:53N 54°15' E 000°35'617.0
2018-May-16 22:31N 54°20' E 000°28'917.3
2018-May-16 22:00N 54°25' E 000°16'917.5
2018-May-16 21:30N 54°30' E 000°04'917.6
2018-May-16 21:01N 54°34' W 000°10'917.8
2018-May-16 20:31N 54°38' W 000°24'2218.6
2018-May-16 19:20N 54°50' W 000°55'618.8
2018-May-16 19:00N 54°53' W 001°04'918.6
2018-May-16 18:31N 54°59' W 001°18'510.5
2018-May-16 18:00N 55°00' W 001°26'1 2.1
2018-May-16 17:29N 54°59' W 001°27'0 0.0
2018-May-16 17:00N 54°59' W 001°27'0 0.0
2018-May-16 16:30N 54°59' W 001°27'0 0.0
2018-May-16 16:00N 54°59' W 001°27'0 0.0
2018-May-16 15:30N 54°59' W 001°27'0 0.0
2018-May-16 14:51N 54°59' W 001°27'0 0.0
2018-May-16 14:21N 54°59' W 001°27'0 0.0
2018-May-16 13:54N 54°59' W 001°27'0 0.1
2018-May-16 13:30N 54°59' W 001°27'  

Dump ship's entire track history